User: anonymous   Login
Location: Carrer del Canonge
(41.4901°N, 2.2931°E)
Time: 05:47:06
(UTC+00:00)
Language:

Milstar 3 Cent rocket - Orbit

View from above orbital plane
View from above orbital plane
View from above satellite
View from above satellite

Ground track
Ground track

The orbit data is extracted from the following two-line orbital elements,

1 25725U 99023B   20339.52392879  .00000019  00000-0  56620-5 0  9990
2 25725  28.3186  34.5650 2384429  55.8825 324.5566  9.67264244 61292
Epoch (UTC): 04 December 2020 12:34:27
Eccentricity: 0.2384429
inclination: 28.3186°
perigee height: 708 km
apogee height: 5145 km
right ascension of ascending node: 34.5650°
argument of perigee: 55.8825°
revolutions per day: 9.67264244
mean anomaly at epoch: 324.5566°
orbit number at epoch: 6129

The dashed part of the orbit path shows where the satellite is in the earth's shadow,  

DLR